Showing default

COSMOS 83, 1573

Orbit data source: Space-Track

COSMOS 83, 1573 is a payload satellite owned by OKB-10 (CIS) in LEO that was launched on Fri, 03 Sep 1965 UTC via a KOSMOS 65S3 launch vehicle from the Tyuratam Missile And Space Complex (TTMTR). Payload-class satellites include a variety of spacecraft equipped with specific instruments for various scientific and technological missions. These include communications satellites like Starlink; space stations such as the ISS; scientific satellites like the Hubble; Earth observation satellites from companies like Planet Labs, Umbra, and HawkEye 360; GPS; miniature CubeSats for education and research; and military/defense satellites.

Loading next visibility...
Identifier
1573, 1965-070D
Orbit
LEO
Country
Flag of CISCIS
Related business
Manufacturer
OKB-10
Mission
Spacecraft
Bus & Motor
STRELA-1 11F610, Unknown motor
Mass
50 kg wet, 50 kg dry
Launch date (UTC)
1965-09-03 (60 years ago)
Launch vehicle
KOSMOS 65S3
Launch site
Tyuratam Missile And Space Complex (TTMTR)
Object type
Payload
Rocket body
Debris
Shape & HBR
Unknown
Radar Cross Section
Medium (>0.1 m² and <1 m²)

Expand to show TLE details & history
Last TLE update: 21 hours ago

TLE from 21 hours ago
0 COSMOS 83
1  1573U 65070D   26033.22593852 -.00000095  00000-0 -17174-4 0  9994
2  1573  56.0575 341.8587 0065064 257.0754 102.2876 12.41043744738456
Epoch: 2026-02-02T05:25Z
TLE epoch observation values (Epoch: 2026-02-02T05:25:21.088Z)
Latitude
0.00002°
Longitude
128.09658°
Altitude
1,514.461 km
Speed
7.104 km/s
True Right ascension
22h 47m 26s
True Declination
0° 00' 00"
Sunlit
Object was in daylight at epoch
Visualization orbit readout
Latitude
Unknown
Longitude
Unknown
Altitude
Unknown
Speed
Unknown
Apparent Right ascension
Unknown
Apparent Declination
Unknown
Sunlit
N/A
Visualization observer readout
Local Sidereal Time
03:55:35
Azimuth
Unknown
Elevation
Unknown
Doppler factor
Unknown
Orbital elements
Apogee altitude
1,553.277 km
Perigee altitude
1,450.734 km
Semi-major axis
7,880.143 km
Eccentricity
0.00651
Inclination
56.0575°
RAAN
341.8587°
Arg. of periapsis
257.0754°
True anomaly
103.01482°
Mean anomaly
102.2876°
Eccentric anomaly
102.65134°
Mean motion
3.10272 °/min
Orbital period
116.03 mins
BSTAR
-0.000017174
Loading maneuver chart data...
Computing Atmospheric mass density...
Loading historical data...
Loading historical data...
Loading historical data...
Loading historical data...
Loading historical data...
Loading historical data...
Loading historical data...
Other satellites on launch #70 in the year 1965 (1965-09-03 UTC)

Documentation

Showing up to 5 results
|